period_start,C,m1,H,J0,J1,J2,J3,J4,J5,JA,JB,JC,JD,JJ,JK,JN,#
2016-09-08 00:01:57,0.00,2.20,0.00,19.71,23.90,26.98,14.70,48.98,1015.64,2048.97,2760.00,2558.99,2919.01,599.85,602.01,45.67,0000 0000 0000 0000 000000
2016-09-08 00:06:58,-0.00,2.20,0.00,19.72,23.87,26.96,14.63,48.86,1015.66,2048.98,2760.00,2558.99,2919.05,599.85,601.98,45.72,0000 0000 0000 0000 000000
2016-09-08 00:11:59,0.00,2.20,0.00,19.73,23.87,26.96,14.64,48.69,1015.65,2048.98,2760.00,2558.99,2919.03,599.98,601.98,45.77,0000 0000 0000 0000 000000
2016-09-08 00:17:01,0.00,2.20,0.00,19.73,23.85,26.96,14.70,48.80,1015.66,2048.98,2760.02,2558.99,2919.18,600.17,602.16,45.82,0000 0000 0000 0000 000000
2016-09-08 00:22:02,-0.00,2.20,0.00,19.74,23.85,26.95,14.72,48.93,1015.66,2048.99,2760.03,2559.00,2919.51,599.97,602.02,45.87,0000 0000 0000 0000 000000
2016-09-08 00:27:03,-0.00,2.20,0.00,19.71,23.83,26.91,14.73,48.80,1015.67,2049.00,2760.08,2559.01,2919.78,600.25,602.49,45.92,0000 0000 0000 0000 000000
2016-09-08 00:32:04,-0.00,2.20,0.00,19.69,23.82,26.93,14.71,48.87,1015.68,2049.01,2760.19,2559.03,2919.93,600.05,602.30,45.97,0000 0000 0000 0000 000000
2016-09-08 00:37:06,-0.01,2.20,0.00,19.67,23.81,26.91,14.67,48.80,1015.72,2049.01,2760.20,2559.07,2919.95,600.00,602.18,46.02,0000 0000 0000 0000 000000
2016-09-08 00:42:07,-0.01,2.20,0.00,19.78,23.80,26.91,14.65,48.63,1015.70,2049.01,2760.48,2559.10,2919.98,599.89,601.90,46.07,0000 0000 0000 0000 000000
2016-09-08 00:47:08,-0.01,2.20,0.00,19.93,23.80,26.90,14.68,48.77,1015.78,2049.03,2760.61,2559.20,2919.98,600.12,601.95,46.12,0000 0000 0000 0000 000000
2016-09-08 00:52:10,0.00,2.20,0.00,20.02,23.80,26.92,14.66,48.68,1015.91,2049.04,2760.79,2559.23,2919.98,599.99,601.79,46.17,0000 0000 0000 0000 000000
2016-09-08 00:57:11,0.00,2.20,0.00,20.06,23.80,26.89,14.62,48.76,1015.98,2049.08,2760.87,2559.31,2919.99,599.97,601.58,46.22,0000 0000 0000 0000 000000
2016-09-08 01:02:12,0.01,2.20,0.00,20.13,23.80,26.89,14.73,48.87,1016.05,2049.15,2760.91,2559.33,2919.99,599.94,601.58,46.27,0000 0000 0000 0000 000000
2016-09-08 01:07:13,0.01,2.20,0.00,20.17,23.80,26.90,14.64,48.79,1016.09,2049.18,2760.90,2559.27,2919.99,599.77,601.23,46.32,0000 0000 0000 0000 000000
2016-09-08 01:12:15,0.00,2.20,0.00,20.19,23.81,26.93,14.64,48.64,1016.12,2049.12,2760.64,2559.14,2919.99,599.98,601.46,46.37,0000 0000 0000 0000 000000
2016-09-08 01:17:16,0.01,2.20,0.00,20.25,23.82,26.94,14.65,48.81,1016.13,2049.10,2760.22,2559.04,2919.96,599.79,601.04,46.42,0000 0000 0000 0000 000000
2016-09-08 01:22:17,0.00,2.20,0.00,20.29,23.82,26.94,14.65,48.77,1016.13,2049.09,2760.08,2559.03,2919.91,599.87,601.12,46.47,0000 0000 0000 0000 000000
2016-09-08 01:27:18,0.01,2.20,0.00,20.32,23.85,26.98,14.72,48.67,1016.14,2049.14,2760.06,2559.04,2919.93,600.50,601.73,46.52,0000 0000 0000 0000 000000
2016-09-08 01:32:19,-0.00,2.20,0.00,20.32,23.85,27.01,14.62,48.62,1016.14,2049.24,2760.09,2559.03,2919.89,599.86,601.01,46.57,0000 0000 0000 0000 000000
2016-09-08 01:37:21,-0.00,2.20,0.00,20.33,23.87,27.00,14.68,48.74,1016.17,2049.13,2760.06,2559.02,2919.79,600.39,601.55,46.63,0000 0000 0000 0000 000000
2016-09-08 01:42:22,0.01,2.20,0.00,20.35,23.87,27.03,14.55,48.74,1016.18,2049.02,2760.01,2559.00,2919.25,599.77,600.96,46.68,0000 0000 0000 0000 000000
2016-09-08 01:47:23,0.00,2.20,0.00,20.37,23.89,27.05,14.65,48.62,1016.35,2049.00,2760.01,2559.00,2919.08,600.06,601.30,46.73,0000 0000 0000 0000 000000
2016-09-08 01:52:24,0.00,2.20,0.00,20.35,23.90,27.07,14.61,48.69,1016.55,2049.00,2760.00,2559.00,2919.03,599.72,601.08,46.78,0000 0000 0000 0000 000000
2016-09-08 01:57:26,0.00,2.20,0.00,20.37,23.92,27.09,14.61,48.76,1016.61,2049.01,2760.00,2559.00,2919.01,599.83,601.24,46.83,0000 0000 0000 0000 000000
2016-09-08 02:02:27,0.00,2.20,0.00,20.39,23.92,27.13,14.70,48.63,1016.62,2049.00,2760.00,2559.00,2919.00,600.17,601.59,46.88,0000 0000 0000 0000 000000
2016-09-08 02:07:28,0.00,2.20,0.00,20.39,23.94,27.12,14.66,48.65,1016.62,2049.00,2759.99,2559.00,2919.00,599.85,601.26,46.93,0000 0000 0000 0000 000000
2016-09-08 02:12:29,0.00,2.20,0.00,20.39,23.95,27.16,14.70,48.69,1016.62,2049.00,2759.99,2559.00,2919.00,600.30,601.70,46.98,0000 0000 0000 0000 000000
2016-09-08 02:17:31,0.00,2.20,0.00,20.39,23.97,27.18,14.65,48.66,1016.63,2049.00,2759.99,2559.00,2919.00,599.81,601.20,47.03,0000 0000 0000 0000 000000
2016-09-08 02:22:32,-0.00,2.20,0.00,20.39,23.97,27.14,14.69,48.67,1016.64,2048.99,2759.98,2559.00,2918.98,600.17,601.54,47.08,0000 0000 0000 0000 000000
2016-09-08 02:27:33,0.00,2.20,0.00,20.39,23.98,27.16,14.67,48.53,1016.74,2048.99,2759.96,2558.99,2918.98,599.96,601.43,47.13,0000 0000 0000 0000 000000
2016-09-08 02:32:35,-0.00,2.20,0.00,20.38,24.00,27.17,14.70,48.68,1016.91,2048.98,2759.98,2558.97,2918.97,600.07,601.56,47.18,0000 0000 0000 0000 000000
2016-09-08 02:37:36,0.01,2.20,0.00,20.37,24.00,27.22,14.70,48.64,1016.98,2048.98,2759.84,2558.97,2918.74,600.21,601.83,47.23,0000 0000 0000 0000 000000
2016-09-08 02:42:37,-0.00,2.20,0.00,20.38,24.00,27.17,14.72,48.63,1017.04,2048.95,2759.85,2558.97,2918.64,600.22,601.83,47.28,0000 0000 0000 0000 000000
2016-09-08 02:47:38,0.00,2.20,0.00,20.36,24.02,27.17,14.69,48.60,1017.09,2048.94,2759.88,2558.97,2918.55,599.98,601.58,47.33,0000 0000 0000 0000 000000
2016-09-08 02:52:39,-0.01,2.20,0.00,20.36,24.02,27.20,14.68,48.58,1017.08,2048.77,2759.61,2558.91,2918.17,600.12,601.83,47.38,0000 0000 0000 0000 000000
2016-09-08 02:57:40,0.01,2.20,0.00,20.37,24.02,27.20,14.67,48.85,1017.08,2048.64,2759.29,2558.78,2918.07,599.89,601.51,47.43,0000 0000 0000 0000 000000
2016-09-08 03:02:41,0.01,2.20,0.00,20.38,24.02,27.20,14.71,48.71,1017.09,2048.67,2759.07,2558.62,2918.04,600.12,601.87,47.48,0000 0000 0000 0000 000000
2016-09-08 03:07:42,0.00,2.20,0.00,20.35,24.02,27.18,14.71,48.83,1017.09,2048.60,2759.04,2558.45,2918.04,600.22,601.90,47.53,0000 0000 0000 0000 000000
2016-09-08 03:12:44,-0.02,2.20,0.00,20.35,24.03,27.16,14.69,48.98,1017.10,2048.41,2759.01,2558.15,2918.00,599.72,601.33,47.59,0000 0000 0000 0000 000000
2016-09-08 03:17:45,0.01,2.20,0.00,20.35,24.04,27.16,14.71,49.13,1017.10,2048.43,2759.00,2558.10,2918.00,599.88,601.78,47.64,0000 0000 0000 0000 000000
2016-09-08 03:22:46,-0.00,2.20,0.00,20.36,24.04,27.18,14.62,48.97,1017.10,2048.50,2759.00,2558.07,2918.00,599.84,601.55,47.69,0000 0000 0000 0000 000000
2016-09-08 03:27:47,0.01,2.20,0.00,20.35,24.04,27.13,14.65,49.09,1017.10,2048.37,2759.00,2558.06,2918.00,600.14,601.81,47.74,0000 0000 0000 0000 000000
2016-09-08 03:32:49,-0.02,2.20,0.00,20.34,24.05,27.16,14.76,49.03,1017.10,2048.35,2759.00,2558.05,2918.00,600.15,601.88,47.79,0000 0000 0000 0000 000000
2016-09-08 03:37:50,0.02,2.20,0.00,20.33,24.05,27.17,14.67,48.86,1017.10,2048.57,2758.99,2558.09,2918.00,599.78,601.40,47.84,0000 0000 0000 0000 000000
2016-09-08 03:42:51,-0.03,2.20,0.00,20.33,24.05,27.11,14.65,48.85,1017.11,2048.42,2758.99,2558.06,2918.00,600.22,602.14,47.89,0000 0000 0000 0000 000000
2016-09-08 03:47:52,0.00,2.20,0.00,20.32,24.05,27.14,14.67,48.92,1017.13,2048.26,2758.99,2558.03,2918.00,599.92,601.76,47.94,0000 0000 0000 0000 000000
2016-09-08 03:52:54,0.00,2.20,0.00,20.32,24.05,27.13,14.61,48.68,1017.27,2048.38,2758.99,2558.03,2918.00,600.06,601.93,47.99,0000 0000 0000 0000 000000
2016-09-08 03:57:55,-0.00,2.20,0.00,20.31,24.05,27.15,14.64,48.72,1017.41,2048.33,2758.99,2558.03,2917.99,599.88,601.86,48.04,0000 0000 0000 0000 000000
2016-09-08 04:02:56,0.01,2.20,0.00,20.30,24.04,27.15,14.66,48.78,1017.54,2048.45,2758.99,2558.03,2917.99,599.61,601.63,48.09,0000 0000 0000 0000 000000
2016-09-08 04:07:57,-0.00,2.20,0.00,20.30,24.04,27.12,14.63,48.77,1017.57,2048.46,2758.98,2558.04,2917.99,599.57,601.63,48.14,0000 0000 0000 0000 000000
2016-09-08 04:12:59,0.00,2.20,0.00,20.31,24.04,27.12,14.74,48.88,1017.58,2048.48,2758.99,2558.04,2917.99,600.47,602.50,48.19,0000 0000 0000 0000 000000
2016-09-08 04:18:00,-0.00,2.20,0.00,20.29,24.04,27.14,14.72,48.82,1017.59,2048.53,2758.98,2558.02,2917.99,600.06,601.99,48.24,0000 0000 0000 0000 000000
2016-09-08 04:23:01,0.02,2.20,0.00,20.29,24.04,27.17,14.67,48.77,1017.59,2048.69,2758.97,2558.01,2917.99,600.14,602.26,48.29,0000 0000 0000 0000 000000
2016-09-08 04:28:02,-0.03,2.20,0.00,20.29,24.04,27.15,14.65,48.82,1017.59,2048.42,2758.99,2558.02,2917.99,599.79,601.94,48.34,0000 0000 0000 0000 000000
2016-09-08 04:33:04,0.00,2.20,0.00,20.28,24.04,27.09,14.63,48.94,1017.59,2048.38,2758.98,2558.05,2917.99,599.85,602.02,48.39,0000 0000 0000 0000 000000
2016-09-08 04:38:05,0.02,2.20,0.00,20.27,24.03,27.11,14.69,48.77,1017.59,2048.50,2758.98,2558.03,2917.99,599.95,602.14,48.45,0000 0000 0000 0000 000000
2016-09-08 04:43:07,-0.00,2.20,0.00,20.26,24.03,27.11,14.59,48.74,1017.59,2048.50,2758.98,2558.03,2917.99,599.71,601.88,48.50,0000 0000 0000 0000 000000
2016-09-08 04:48:08,0.03,2.20,0.00,20.25,24.02,27.11,14.66,48.92,1017.59,2048.80,2758.98,2558.03,2917.99,599.62,601.89,48.55,0000 0000 0000 0000 000000
2016-09-08 04:53:09,0.01,2.20,0.00,20.25,24.02,27.12,14.65,48.70,1017.60,2048.89,2758.97,2558.05,2917.99,599.79,602.11,48.60,0000 0000 0000 0000 000000
2016-09-08 04:58:10,0.00,2.20,0.00,20.25,24.02,27.05,14.71,48.75,1017.61,2048.95,2758.96,2558.03,2917.99,600.06,602.44,48.65,0000 0000 0000 0000 000000
2016-09-08 05:03:12,-0.00,2.20,0.00,20.24,24.02,27.03,14.59,48.63,1017.62,2048.88,2758.98,2558.06,2917.99,599.75,601.99,48.70,0000 0000 0000 0000 000000
2016-09-08 05:08:13,-0.00,2.20,0.00,20.23,24.02,27.04,14.74,48.73,1017.69,2048.82,2758.96,2558.02,2917.99,600.16,602.34,48.75,0000 0000 0000 0000 000000
2016-09-08 05:13:14,0.01,2.20,0.00,20.23,24.02,27.04,14.65,48.67,1017.84,2048.89,2758.88,2558.01,2917.99,599.95,602.23,48.80,0000 0000 0000 0000 000000
2016-09-08 05:18:16,0.00,2.20,0.00,20.21,24.02,27.04,14.76,48.83,1017.91,2048.95,2758.85,2558.02,2917.99,599.93,602.43,48.85,0000 0000 0000 0000 000000
2016-09-08 05:23:17,0.00,2.20,0.00,20.21,24.02,27.03,14.70,48.77,1018.04,2048.96,2758.92,2558.02,2917.99,600.02,602.51,48.90,0000 0000 0000 0000 000000
2016-09-08 05:28:18,0.00,2.20,0.00,20.22,24.01,27.06,14.67,48.72,1018.08,2048.98,2758.90,2558.04,2917.99,600.13,602.82,48.95,0000 0000 0000 0000 000000
2016-09-08 05:33:20,0.00,2.20,0.00,20.20,24.00,27.02,14.72,48.98,1018.08,2048.97,2758.89,2558.03,2917.99,599.76,602.40,49.00,0000 0000 0000 0000 000000
2016-09-08 05:38:21,-0.00,2.20,0.00,20.21,24.00,27.02,14.71,48.63,1018.08,2048.98,2758.80,2558.02,2917.99,600.14,602.80,49.05,0000 0000 0000 0000 000000
2016-09-08 05:43:22,-0.01,2.20,0.00,20.21,24.00,27.04,14.72,48.66,1018.08,2048.99,2758.88,2558.07,2917.99,600.28,602.79,49.10,0000 0000 0000 0000 000000
2016-09-08 05:48:24,0.00,2.20,0.00,20.20,24.00,27.07,14.74,48.98,1018.08,2048.98,2758.96,2558.12,2917.99,600.41,603.02,49.15,0000 0000 0000 0000 000000
2016-09-08 05:53:25,0.00,2.20,0.00,20.21,24.00,27.03,14.69,48.82,1018.09,2048.99,2758.95,2558.13,2917.99,599.97,602.56,49.20,0000 0000 0000 0000 000000
2016-09-08 05:58:26,-0.00,2.20,0.00,20.21,24.00,27.03,14.66,48.87,1018.08,2048.99,2758.97,2558.12,2917.99,599.94,602.53,49.25,0000 0000 0000 0000 000000
2016-09-08 06:03:28,0.00,2.20,0.00,20.21,24.00,26.99,14.77,48.83,1018.09,2048.99,2758.96,2558.11,2917.99,600.54,603.13,49.30,0000 0000 0000 0000 000000
2016-09-08 06:08:29,-0.00,2.20,0.00,20.22,24.00,27.02,14.65,48.66,1018.11,2048.99,2758.97,2558.17,2917.99,599.75,602.37,49.35,0000 0000 0000 0000 000000
2016-09-08 06:13:30,0.00,2.20,0.00,20.19,23.99,26.98,14.67,48.71,1018.14,2048.98,2758.96,2558.09,2917.99,599.97,602.68,49.40,0000 0000 0000 0000 000000
2016-09-08 06:18:32,0.00,2.20,0.00,20.18,23.99,27.00,14.68,48.79,1018.25,2048.98,2758.92,2558.08,2917.99,599.53,602.19,49.46,0000 0000 0000 0000 000000
2016-09-08 06:23:33,-0.00,2.20,0.00,20.18,23.98,27.01,14.67,48.73,1018.48,2048.99,2758.93,2558.10,2917.99,599.96,602.92,49.51,0000 0000 0000 0000 000000
2016-09-08 06:28:34,-0.00,2.20,0.00,20.20,23.97,27.03,14.76,48.92,1018.55,2048.98,2758.95,2558.21,2917.99,600.41,603.25,49.56,0000 0000 0000 0000 000000
2016-09-08 06:33:36,0.00,2.20,0.00,20.21,23.97,27.05,14.69,48.80,1018.56,2048.99,2758.90,2558.15,2917.99,600.05,603.04,49.61,0000 0000 0000 0000 000000
2016-09-08 06:38:37,-0.00,2.20,0.00,20.20,23.97,27.00,14.65,48.93,1018.57,2048.99,2758.92,2558.16,2917.99,599.77,602.68,49.66,0000 0000 0000 0000 000000
2016-09-08 06:43:38,0.01,2.20,0.00,20.19,23.97,27.01,14.63,48.89,1018.57,2048.98,2758.89,2558.19,2917.99,599.72,602.66,49.71,0000 0000 0000 0000 000000
2016-09-08 06:48:39,0.00,2.20,0.00,20.18,23.97,26.94,14.65,48.76,1018.58,2048.99,2758.79,2558.12,2917.99,599.99,602.96,49.76,0000 0000 0000 0000 000000
2016-09-08 06:53:40,0.00,2.20,0.00,20.19,23.97,27.03,14.70,48.93,1018.59,2048.99,2758.67,2558.09,2917.99,600.11,603.07,49.81,0000 0000 0000 0000 000000
2016-09-08 06:58:41,-0.01,2.20,0.00,20.18,23.96,27.03,14.62,48.89,1018.69,2048.99,2758.72,2558.13,2917.99,599.86,602.78,49.86,0000 0000 0000 0000 000000
2016-09-08 07:03:43,-0.01,2.20,0.00,20.17,23.95,27.03,14.70,48.90,1018.82,2048.99,2758.78,2558.26,2917.99,600.22,603.34,49.91,0000 0000 0000 0000 000000
2016-09-08 07:08:44,-0.00,2.20,0.00,20.16,23.95,26.99,14.66,48.88,1018.75,2048.99,2758.93,2558.35,2917.99,599.98,603.18,49.96,0000 0000 0000 0000 000000
2016-09-08 07:13:45,0.01,2.20,0.00,20.16,23.95,26.93,14.74,48.88,1018.81,2048.99,2758.85,2558.31,2917.99,600.08,603.23,50.01,0000 0000 0000 0000 000000
2016-09-08 07:18:46,0.01,2.20,0.00,20.17,23.95,27.00,14.72,48.89,1018.93,2048.99,2758.26,2558.11,2917.99,600.00,603.21,50.06,0000 0000 0000 0000 000000
2016-09-08 07:23:47,-0.01,2.20,0.00,20.15,23.95,26.99,14.68,48.83,1019.03,2048.99,2758.22,2558.11,2917.99,599.85,603.10,50.11,0000 0000 0000 0000 000000
2016-09-08 07:28:48,0.00,2.20,0.00,20.15,23.95,26.93,14.67,48.88,1019.05,2048.99,2758.28,2558.21,2917.99,600.03,603.23,50.16,0000 0000 0000 0000 000000
2016-09-08 07:33:50,0.01,2.20,0.00,20.16,23.94,26.97,14.71,48.88,1019.06,2048.99,2758.13,2558.13,2917.99,600.29,603.40,50.21,0000 0000 0000 0000 000000
2016-09-08 07:38:51,0.00,2.20,0.00,20.15,23.94,26.98,14.68,48.98,1019.06,2048.99,2758.05,2558.05,2917.97,599.66,602.93,50.26,0000 0000 0000 0000 000000
2016-09-08 07:43:52,0.00,2.20,0.00,20.15,23.92,26.97,14.69,48.80,1019.08,2048.99,2758.03,2558.08,2917.99,600.14,603.42,50.31,0000 0000 0000 0000 000000
2016-09-08 07:48:53,-0.01,2.20,0.00,20.15,23.92,26.98,14.73,48.92,1019.15,2049.00,2758.08,2558.23,2917.99,600.12,603.44,50.36,0000 0000 0000 0000 000000
2016-09-08 07:53:54,0.00,2.20,0.00,20.15,23.92,26.95,14.67,49.02,1019.25,2049.00,2758.11,2558.27,2917.99,600.05,603.43,50.42,0000 0000 0000 0000 000000
2016-09-08 07:58:56,-0.00,2.20,0.00,20.15,23.92,26.99,14.68,49.07,1019.37,2049.00,2758.03,2558.10,2917.99,599.91,603.43,50.47,0000 0000 0000 0000 000000
2016-09-08 08:03:57,0.00,2.20,0.00,20.14,23.92,26.97,14.75,49.05,1019.48,2049.01,2758.02,2558.14,2917.99,599.90,603.44,50.52,0000 0000 0000 0000 000000
2016-09-08 08:08:58,0.00,2.20,0.00,20.16,23.92,27.01,14.72,49.15,1019.46,2049.01,2758.02,2558.17,2917.99,600.03,603.43,50.57,0000 0000 0000 0000 000000
2016-09-08 08:13:59,0.00,2.20,0.00,20.15,23.91,26.95,14.75,49.02,1019.51,2049.01,2758.00,2558.04,2917.97,600.05,603.46,50.62,0000 0000 0000 0000 000000
2016-09-08 08:19:01,-0.00,2.20,0.00,20.13,23.90,26.96,14.71,48.94,1019.53,2049.00,2758.00,2558.04,2917.96,599.76,603.23,50.67,0000 0000 0000 0000 000000
2016-09-08 08:24:02,-0.00,2.20,0.00,20.13,23.90,26.95,14.65,48.60,1019.55,2049.00,2757.98,2558.02,2917.93,600.06,603.64,50.72,0000 0000 0000 0000 000000
2016-09-08 08:29:04,0.00,2.20,0.00,20.12,23.90,26.96,14.71,48.65,1019.55,2049.01,2757.98,2558.01,2917.85,600.02,603.73,50.77,0000 0000 0000 0000 000000
2016-09-08 08:34:05,0.00,2.20,0.00,20.12,23.90,26.94,14.68,48.76,1019.55,2049.02,2757.98,2558.01,2917.78,599.87,603.51,50.82,0000 0000 0000 0000 000000
2016-09-08 08:39:06,0.00,2.20,0.00,20.11,23.90,26.94,14.72,48.87,1019.56,2049.02,2757.96,2558.01,2917.73,599.98,603.68,50.87,0000 0000 0000 0000 000000
2016-09-08 08:44:07,0.00,2.20,0.00,20.10,23.89,26.95,14.68,48.67,1019.61,2049.01,2757.92,2558.01,2917.58,599.82,603.57,50.92,0000 0000 0000 0000 000000
2016-09-08 08:49:08,0.02,2.20,0.00,20.11,23.88,26.98,14.71,48.92,1019.73,2049.02,2757.39,2558.00,2917.22,599.91,603.70,50.97,0000 0000 0000 0000 000000
2016-09-08 08:54:10,0.00,2.20,0.00,20.11,23.87,26.96,14.66,48.92,1019.92,2049.01,2757.09,2558.00,2917.05,599.89,603.95,51.02,0000 0000 0000 0000 000000
2016-09-08 08:59:11,0.00,2.20,0.00,20.10,23.87,26.95,14.70,48.82,1019.98,2049.04,2757.01,2558.00,2917.03,599.50,603.38,51.07,0000 0000 0000 0000 000000
2016-09-08 09:04:12,-0.00,2.20,0.00,20.10,23.87,26.87,14.69,48.86,1020.02,2049.02,2757.00,2558.00,2917.01,599.83,603.77,51.12,0000 0000 0000 0000 000000
2016-09-08 09:09:13,0.00,2.20,0.00,20.08,23.87,26.89,14.74,48.83,1020.03,2049.05,2757.00,2557.99,2917.00,600.00,603.92,51.17,0000 0000 0000 0000 000000
2016-09-08 09:14:15,-0.00,2.20,0.00,20.08,23.87,26.84,14.70,48.87,1020.04,2049.05,2756.99,2557.99,2917.00,600.22,604.23,51.22,0000 0000 0000 0000 000000
2016-09-08 09:19:16,0.00,2.20,0.00,20.08,23.87,26.95,14.74,49.05,1020.04,2049.04,2756.98,2557.99,2917.00,599.72,603.70,51.27,0000 0000 0000 0000 000000
2016-09-08 09:24:17,0.01,2.20,0.00,20.07,23.85,26.92,14.79,48.96,1020.04,2049.11,2756.97,2557.99,2916.99,600.32,604.39,51.33,0000 0000 0000 0000 000000
2016-09-08 09:29:19,0.00,2.21,0.00,20.07,23.85,26.89,14.74,48.95,1020.04,2049.15,2756.94,2557.98,2916.99,599.89,603.97,51.38,0000 0000 0000 0000 000000
2016-09-08 09:34:20,0.01,2.21,0.00,20.07,23.85,26.91,14.68,48.88,1020.05,2049.26,2756.97,2557.99,2916.99,599.61,603.69,51.43,0000 0000 0000 0000 000000
2016-09-08 09:39:21,0.02,2.21,0.00,20.06,23.85,26.93,14.70,48.91,1020.07,2049.52,2756.92,2557.99,2916.99,600.14,604.28,51.48,0000 0000 0000 0000 000000
2016-09-08 09:44:23,-0.01,2.21,0.00,20.06,23.85,26.93,14.73,48.82,1020.12,2049.33,2756.58,2557.98,2916.99,599.76,603.84,51.53,0000 0000 0000 0000 000000
2016-09-08 09:49:24,0.01,2.21,0.00,20.07,23.85,26.87,14.71,48.83,1020.21,2049.43,2756.53,2557.99,2916.99,600.09,604.25,51.58,0000 0000 0000 0000 000000
2016-09-08 09:54:26,-0.00,2.21,0.00,20.06,23.84,26.88,14.79,48.74,1020.39,2049.50,2756.65,2557.99,2916.99,600.38,604.62,51.63,0000 0000 0000 0000 000000
2016-09-08 09:59:27,0.01,2.21,0.00,20.05,23.84,26.86,14.75,48.86,1020.49,2049.40,2756.26,2557.98,2916.99,600.11,604.44,51.68,0000 0000 0000 0000 000000
2016-09-08 10:04:28,0.01,2.21,0.00,20.05,23.82,26.86,14.77,48.92,1020.51,2049.48,2756.16,2557.98,2916.98,600.32,604.71,51.73,0000 0000 0000 0000 000000
2016-09-08 10:09:30,-0.00,2.21,0.00,20.04,23.82,26.86,14.77,48.84,1020.52,2049.61,2756.29,2557.98,2916.99,600.28,604.76,51.78,0000 0000 0000 0000 000000
2016-09-08 10:14:31,-0.01,2.21,0.00,20.03,23.82,26.86,14.70,48.83,1020.52,2049.51,2756.10,2557.98,2916.98,600.03,604.39,51.83,0000 0000 0000 0000 000000
2016-09-08 10:19:32,0.01,2.21,0.00,20.04,23.82,26.76,14.65,48.79,1020.54,2049.47,2756.04,2557.96,2916.98,600.06,604.40,51.88,0000 0000 0000 0000 000000
2016-09-08 10:24:33,0.00,2.21,0.00,20.02,23.82,26.84,14.74,48.92,1020.60,2049.47,2756.05,2557.98,2916.97,599.88,604.32,51.93,0000 0000 0000 0000 000000
2016-09-08 10:29:34,0.02,2.21,0.00,20.02,23.82,26.86,14.76,48.83,1020.85,2049.68,2756.06,2557.98,2916.99,600.02,604.56,51.98,0000 0000 0000 0000 000000
2016-09-08 10:34:36,-0.02,2.21,0.00,20.01,23.80,26.86,14.72,48.92,1020.95,2049.64,2756.12,2557.99,2916.98,600.17,604.82,52.03,0000 0000 0000 0000 000000
2016-09-08 10:39:37,0.02,2.21,0.00,20.00,23.80,26.83,14.76,48.74,1021.00,2049.74,2756.17,2557.99,2916.98,600.16,604.84,52.08,0000 0000 0000 0000 000000
2016-09-08 10:44:38,-0.00,2.21,0.00,20.00,23.80,26.82,14.67,48.78,1021.01,2049.70,2756.12,2557.99,2916.98,599.86,604.58,52.13,0000 0000 0000 0000 000000
2016-09-08 10:49:39,0.01,2.21,0.00,20.00,23.80,26.82,14.77,48.92,1021.01,2049.79,2756.13,2557.99,2916.99,600.22,605.01,52.18,0000 0000 0000 0000 000000
2016-09-08 10:54:40,-0.01,2.21,0.00,20.00,23.80,26.81,14.75,48.85,1021.01,2049.78,2756.13,2557.99,2916.98,599.95,604.53,52.23,0000 0000 0000 0000 000000
2016-09-08 10:59:41,0.01,2.21,0.00,19.99,23.80,26.78,14.73,48.93,1021.03,2049.86,2756.19,2557.99,2916.99,599.76,604.53,52.29,0000 0000 0000 0000 000000
2016-09-08 11:04:43,-0.01,2.21,0.00,19.98,23.78,26.80,14.81,48.94,1021.03,2049.88,2756.10,2557.99,2916.99,600.10,604.82,52.34,0000 0000 0000 0000 000000
2016-09-08 11:09:44,-0.00,2.21,0.00,19.98,23.77,26.82,14.81,48.94,1021.05,2049.81,2756.05,2557.99,2916.99,600.09,604.85,52.39,0000 0000 0000 0000 000000
2016-09-08 11:14:46,0.01,2.21,0.00,19.97,23.77,26.81,14.65,48.75,1021.10,2049.91,2756.02,2557.99,2916.99,599.64,604.42,52.44,0000 0000 0000 0000 000000
2016-09-08 11:19:47,0.00,2.21,0.00,19.97,23.77,26.80,14.65,48.84,1021.25,2049.92,2756.05,2557.99,2916.99,599.75,604.62,52.49,0000 0000 0000 0000 000000
2016-09-08 11:24:48,0.00,2.21,0.00,19.97,23.77,26.75,14.77,48.94,1021.43,2049.95,2756.03,2557.99,2916.99,600.24,605.23,52.54,0000 0000 0000 0000 000000
2016-09-08 11:29:50,0.00,2.21,0.00,19.96,23.77,26.80,14.75,49.00,1021.43,2049.97,2756.03,2557.99,2916.98,600.03,605.23,52.59,0000 0000 0000 0000 000000
2016-09-08 11:34:51,0.00,2.21,0.00,19.96,23.77,26.77,14.78,48.97,1021.47,2049.97,2756.02,2557.99,2916.99,600.07,605.18,52.64,0000 0000 0000 0000 000000
2016-09-08 11:39:53,0.00,2.21,0.00,19.96,23.75,26.80,14.69,48.88,1021.46,2049.98,2756.02,2557.99,2916.99,600.01,605.15,52.69,0000 0000 0000 0000 000000
2016-09-08 11:44:54,0.00,2.21,0.00,19.94,23.75,26.79,14.89,49.10,1021.50,2049.96,2756.01,2557.99,2916.99,600.35,605.50,52.74,0000 0000 0000 0000 000000
2016-09-08 11:49:55,0.00,2.21,0.00,19.93,23.75,26.78,14.71,48.85,1021.50,2049.96,2756.00,2557.99,2916.98,599.99,605.18,52.79,0000 0000 0000 0000 000000
2016-09-08 11:54:57,-0.00,2.21,0.00,19.94,23.75,26.81,14.75,48.91,1021.50,2049.98,2756.01,2557.99,2916.98,600.14,605.29,52.84,0000 0000 0000 0000 000000
2016-09-08 11:59:57,0.00,2.21,0.00,19.93,23.74,26.75,14.75,49.08,1021.50,2049.98,2756.01,2557.99,2916.97,600.03,605.23,52.89,0000 0000 0000 0000 000000
2016-09-08 12:04:59,-0.00,2.21,0.00,19.93,23.72,26.71,14.79,48.92,1021.50,2049.98,2756.00,2557.99,2916.98,600.13,605.53,52.94,0000 0000 0000 0000 000000
2016-09-08 12:10:00,0.00,2.21,0.00,19.93,23.72,26.71,14.72,48.79,1021.50,2049.99,2756.00,2558.00,2916.97,599.73,604.82,52.99,0000 0000 0000 0000 000000
2016-09-08 12:15:01,0.00,2.21,0.00,19.92,23.72,26.74,14.74,48.85,1021.50,2049.98,2756.00,2558.00,2916.98,599.77,604.98,53.04,0000 0000 0000 0000 000000
2016-09-08 12:20:03,0.00,2.21,0.00,19.93,23.72,26.77,14.74,48.95,1021.50,2049.98,2756.00,2558.00,2916.98,599.86,605.11,53.09,0000 0000 0000 0000 000000
2016-09-08 12:25:04,0.00,2.21,0.00,19.92,23.71,26.74,14.77,48.79,1021.51,2049.99,2755.98,2558.00,2916.97,600.05,605.27,53.14,0000 0000 0000 0000 000000
2016-09-08 12:30:05,0.00,2.21,0.00,19.91,23.70,26.71,14.79,48.83,1021.51,2049.98,2755.97,2558.00,2916.92,600.03,605.18,53.20,0000 0000 0000 0000 000000
2016-09-08 12:35:06,0.00,2.21,0.00,19.90,23.70,26.75,14.70,48.68,1021.52,2049.98,2755.99,2558.00,2916.96,599.80,605.05,53.25,0000 0000 0000 0000 000000
2016-09-08 12:40:07,0.00,2.21,0.00,19.92,23.70,26.79,14.80,48.77,1021.58,2049.98,2755.99,2558.00,2916.97,600.31,605.56,53.30,0000 0000 0000 0000 000000
2016-09-08 12:45:09,0.00,2.21,0.00,19.90,23.69,26.75,14.74,48.98,1021.68,2049.98,2755.98,2558.00,2916.91,600.06,605.31,53.35,0000 0000 0000 0000 000000
2016-09-08 12:50:10,-0.00,2.21,0.00,19.88,23.68,26.75,14.76,49.10,1021.73,2049.99,2755.98,2558.00,2916.95,600.12,605.49,53.40,0000 0000 0000 0000 000000
2016-09-08 12:55:11,0.00,2.21,0.00,19.89,23.67,26.77,14.76,48.94,1021.87,2049.99,2755.98,2558.00,2916.96,600.03,605.53,53.45,0000 0000 0000 0000 000000